Regional Weather Roundup
Issued by NWS Columbia, SC

Home | Current Version | Previous Version | Text Only | Print | Product List | Glossary On
Versions: 1 2 3 4 5 6 7 8 9 10 11 12 13 14 15 16 17 18 19 20 21 22 23 24 25 26 27 28 29 30 31 32 33 34 35 36 37 38 39 40 41 42 43 44 45 46 47 48 49 50
000
ASUS42 KCAE 261310
RWRCAE
REGIONAL WEATHER ROUNDUP
NATIONAL WEATHER SERVICE COLUMBIA SC
900 AM EDT SUN APR 26 2015

NOTE: "FAIR" INDICATES FEW OR NO CLOUDS BELOW 12,000 FEET WITH NO
SIGNIFICANT WEATHER AND/OR OBSTRUCTIONS TO VISIBILITY.

NOT ALL STATIONS ARE QUALITY CONTROLLED BY THE NATIONAL
WEATHER SERVICE. USE DATA WITH CAUTION...ESPECIALLY
DEWPOINT OBSERVATIONS.

SCZ001>056-GAZ040-063>065-077-261400-
...UPSTATE SOUTH CAROLINA...

CITY           SKY/WX    TMP DP  RH WIND       PRES   REMARKS
ANDERSON       MOSUNNY   68  64  87 SW14      29.63R
LIBERTY        SUNNY     64  63  97 SW6       29.62S
SPARTANBURG    FOG       57  57 100 E3        29.63R VSB 1/4
CLEMSON        SUNNY     69  59  70 SW6       29.63R
GREENVILLE     SUNNY     67  61  81 SW10      29.62R
GREENWOOD      PTSUNNY   69  64  84 W13G21    29.65R
GREER          MOSUNNY   68  63  84 CALM      29.61R
ROCK HILL      CLOUDY    51  50  96 NE6       29.65R FOG
CHESTER        FOG       55  55 100 NE7       29.64S VSB 1/4
LAURENS        PTSUNNY   68  68 100 SW10G17   29.62R


...CENTRAL SOUTH CAROLINA...

CITY           SKY/WX    TMP DP  RH WIND       PRES   REMARKS
COLUMBIA APT   CLOUDY    71  64  78 W17       29.62R
COLUMBIA OWENS CLOUDY    71  63  75 W10       29.63R
DARLINGTON     CLOUDY    55  52  88 N10       29.64R VSB 1
FLORENCE       CLOUDY    68  64  87 NW9       29.60R
MCENTIRE ANGB  PTSUNNY   69  65  85 W13       29.62R
ORANGEBURG     CLOUDY    69  63  81 W14G22    29.64R
SUMTER SHAW    PTSUNNY   70  65  84 W13       29.59R
AIKEN          PTSUNNY   66  63  88 W12G17    29.68S
BARNWELL       CLOUDY    70  66  88 W10G18    29.67R
MANNING        CLOUDY    68  54  60 SW8       29.62R
CAMDEN         CLOUDY    68  66  94 W7        29.61R
LANCASTER      FOG       55  55 100 N6        29.64R VSB 1/2
WINNSBORO      CLOUDY    66  64  94 W7        29.62R


...EASTERN AND COASTAL SOUTH CAROLINA...

CITY           SKY/WX    TMP DP  RH WIND       PRES   REMARKS
MYRTLE BEACH   PTSUNNY   70  63  78 W12       29.60S
N MYRTLE BCH   CLOUDY    69  64  84 W8        29.59R
CONWAY         CLOUDY    68  64  88 W5        29.60R FOG
MARION         CLOUDY    66  64  94 N10       29.60R
HARTSVILLE     CLOUDY    55  54  94 N5        29.63R VSB 3/4
FLORENCE       CLOUDY    68  64  87 NW9       29.60R
DARLINGTON     CLOUDY    55  52  88 N10       29.64R VSB 1
CHARLESTON APT MOSUNNY   69  64  84 W10G21    29.64R
MOUNT PLEASANT FAIR      72  64  78 MISG      29.63S
WALTERBORO     CLOUDY    66  63  88 W12G18    29.66R
BEAUFORT       SUNNY     70  65  84 W17       29.66S


...EASTERN GEORGIA...

CITY           SKY/WX    TMP DP  RH WIND       PRES   REMARKS
AUGUSTA BUSH F MOSUNNY   69  64  84 W12G18    29.66R
AUGUSTA DANIEL PTSUNNY   69  63  81 SW8       29.67R
THOMSON        CLOUDY    69  67  94 W9        29.72R
WASHINGTON     FAIR      70  70 100 W8        29.67S
CLAXTON        FAIR      70  66  88 W6G16     29.71S
SYLVANIA       CLOUDY    67  66  95 W9        29.69S
STATESBORO       N/A     68  68 100 W12G18    29.69S
SAVANNAH       MOSUNNY   69  64  84 W14       29.69S


...SOUTHERN NORTH CAROLINA...

CITY           SKY/WX    TMP DP  RH WIND       PRES   REMARKS
CHARLOTTE      FOG       49  47  93 N6        29.66R VSB 1/2
MONROE         FOG       50  48  93 NE8       29.65R VSB 1/4
WADESBORO      CLOUDY    50  49  97 N8        29.66R FOG
ROCKINGHAM     CLOUDY    50  49  97 N5        29.65R FOG
RUTHERFORDTON  FOG       51  51 100 CALM      29.65R VSB<1/4
ASHEVILLE      MOSUNNY   60  54  80 N8        29.66R

$$



USA.gov is the U.S. government's official web portal to all federal, state and local government web resources and services.